Retour au catalogue

STARLINK-3880

ActifCommunicationsVLEO
NORAD 52334·PAYLOAD·🇺🇸 United States

Lancé Apr 29, 2022 depuis Cape Canaveral Space Force Station

Loading…

Prochains Passages (prochaines 24 heures)

TLE

FraisSource: CelesTrak SupGP

Époque: Sep 15, 2026, 01:24 UTC

1 52334C 22045D   26258.05881944  .00707380  00000+0  22027-1 0  2588
2 52334  53.1604  76.9318 0001150  81.7540 133.9426 15.32376622    10

Suivez STARLINK-3880 en temps réel avec AllMySat

Download on the App Store